Hourly Data Report for October 04, 2018

MONTREAL INTL A
QUEBEC
Current Station Operator: NAVCAN

45°28'14.000" N
73°44'27.000" W
36.00 m
7025251
71627
YUL

Download Data

Hourly Data (October 2018)
Hourly Data Report for October 4, 2018
TIME
LST
Temp Definition
°C
Dew Point Definition
°C
Rel Hum Definition
%
Precip. Amount Definition
mm

Wind Dir Definition
10's deg

Wind Spd Definition
km/h
Visibility Definition
km
Stn Press Definition
kPa
Hmdx Definition


Wind Chill Definition


Weather Definition


00:00 11.8 10.4 91   13 11 24.1 101.06     LegendNANA
01:00 11.9 10.5 91   12 12 24.1 100.97     Mainly Clear
02:00 11.9 10.8 93   14 12 24.1 100.85     LegendNANA
03:00 12.3 11.1 92   15 11 24.1 100.72     LegendNANA
04:00 13.3 11.5 89   15 24 24.1 100.51     Mostly Cloudy
05:00 13.6 11.7 88   15 25 24.1 100.44     LegendNANA
06:00 14.0 11.8 86   15 26 24.1 100.35     LegendNANA
07:00 14.7 12.2 85   15 28 24.1 100.29     Cloudy
08:00 14.7 13.4 91   15 29 24.1 100.18     Rain Showers
09:00 15.2 14.1 93   15 20 16.1 100.22     Rain Showers
10:00 16.6 15.2 91   16 24 24.1 100.16     Cloudy
11:00 17.5 16.1 92   18 22 24.1 100.19     LegendNANA
12:00 20.8 18.8 88   24 27 24.1 100.21 27   LegendNANA
13:00 22.3 19.3 83   23 30 24.1 100.21 29   Mostly Cloudy
14:00 22.8 19.3 80   22 32 24.1 100.27 30   LegendNANA
15:00 24.4 16.5 61   27 21 24.1 100.37 29   LegendNANA
16:00 22.3 12.9 55   29 29 24.1 100.56 25   Mainly Clear
17:00 20.2 9.9 51   30 23 24.1 100.77     LegendNANA
18:00 17.2 7.5 52   33 26 24.1 100.99     LegendNANA
19:00 14.3 3.5 48   32 23 24.1 101.26     Clear
20:00 12.4 3.3 54   32 21 24.1 101.40     LegendNANA
21:00 11.4 1.4 50   33 18 24.1 101.61     LegendNANA
22:00 9.2 1.6 59   36 16 24.1 101.72     Clear
23:00 8.4 0.8 59   35 17 24.1 101.79     LegendNANA

Notes on Data Quality.

Legend

  • E = Estimated
  • M = Missing
  • NA = Not Available*
  • [empty] = Indicates an unobserved value
Date modified: